| time (UTC) | temp C | wind direction | speed KPH | gust KPH | rain 1hr cm | rain 24hr cm | rain mn cm | humidity % | barometer mb |
| 20260503211539 | 16 | 235 | 8.0 | 17.7 | 0.00 | 0.00 | 0.00 | 68 | 1013.9 |
| 20260503210036 | 16 | 152 | 4.8 | 24.1 | 0.00 | 0.00 | 0.00 | 70 | 1013.7 |
| 20260503204542 | 16 | 131 | 4.8 | 14.5 | 0.00 | 0.00 | 0.00 | 72 | 1013.8 |
| 20260503203039 | 15 | 127 | 4.8 | 17.7 | 0.00 | 0.00 | 0.00 | 74 | 1014.0 |
| 20260503201538 | 15 | 119 | 4.8 | 17.7 | 0.00 | 0.00 | 0.00 | 75 | 1014.0 |
| 20260503200038 | 15 | 144 | 3.2 | 17.7 | 0.00 | 0.00 | 0.00 | 74 | 1014.0 |
| 20260503194536 | 15 | 178 | 1.6 | 12.9 | 0.00 | 0.00 | 0.00 | 75 | 1014.2 |
| 20260503193047 | 15 | 7 | 3.2 | 16.1 | 0.00 | 0.00 | 0.00 | 74 | 1014.2 |
| 20260503191538 | 16 | 187 | 6.4 | 16.1 | 0.00 | 0.00 | 0.00 | 71 | 1014.1 |
| 20260503190042 | 16 | 184 | 4.8 | 16.1 | 0.00 | 0.00 | 0.00 | 71 | 1014.2 |
| 20260503184538 | 15 | 93 | 4.8 | 16.1 | 0.00 | 0.00 | 0.00 | 76 | 1014.1 |
| 20260503183050 | 15 | 131 | 1.6 | 12.9 | 0.00 | 0.00 | 0.00 | 75 | 1014.0 |
| 20260503181538 | 15 | 0 | 1.6 | 11.3 | 0.00 | 0.00 | 0.00 | 74 | 1014.1 |
| 20260503180036 | 15 | 124 | 3.2 | 11.3 | 0.00 | 0.00 | 0.00 | 76 | 1013.9 |
| 20260503174542 | 15 | 122 | 3.2 | 12.9 | 0.00 | 0.00 | 0.00 | 79 | 1013.9 |
| 20260503173036 | 13 | 302 | 3.2 | 12.9 | 0.00 | 0.00 | 0.00 | 81 | 1014.0 |
| 20260503171537 | 13 | 0 | 1.6 | 11.3 | 0.00 | 0.00 | 0.00 | 81 | 1013.9 |
| 20260503081536 | 11 | 327 | 0.0 | 8.0 | 0.00 | 0.00 | 0.00 | 90 | 1012.8 |
| 20260503071538 | 11 | 0 | 1.6 | 14.5 | 0.00 | 0.00 | 0.00 | 91 | 1012.7 |
| 20260503054541 | 11 | 198 | 1.6 | 14.5 | 0.00 | 0.00 | 0.00 | 90 | 1012.9 |
| 20260503053043 | 11 | 340 | 1.6 | 11.3 | 0.00 | 0.00 | 0.00 | 90 | 1013.1 |
| 20260503051544 | 11 | 0 | 3.2 | 11.3 | 0.00 | 0.00 | 0.00 | 90 | 1013.1 |
| 20260503050041 | 11 | 0 | 0.0 | 8.0 | 0.00 | 0.00 | 0.00 | 89 | 1013.1 |
| 20260503044541 | 11 | 0 | 3.2 | 14.5 | 0.00 | 0.00 | 0.00 | 89 | 1013.1 |
| 20260503043037 | 11 | 238 | 4.8 | 12.9 | 0.00 | 0.00 | 0.00 | 89 | 1012.9 |
| 20260503041543 | 11 | 0 | 0.0 | 6.4 | 0.00 | 0.00 | 0.00 | 89 | 1012.9 |
| 20260503040044 | 11 | 160 | 3.2 | 12.9 | 0.00 | 0.00 | 0.00 | 89 | 1012.9 |
| 20260503034538 | 11 | 162 | 0.0 | 11.3 | 0.00 | 0.00 | 0.00 | 89 | 1012.9 |
| 20260503033046 | 11 | 282 | 1.6 | 16.1 | 0.00 | 0.00 | 0.00 | 89 | 1012.4 |
| 20260503031535 | 11 | 150 | 1.6 | 14.5 | 0.00 | 0.00 | 0.00 | 89 | 1012.2 |
| 20260503030035 | 11 | 316 | 3.2 | 12.9 | 0.00 | 0.00 | 0.00 | 89 | 1012.0 |
| 20260503024542 | 11 | 0 | 3.2 | 12.9 | 0.00 | 0.00 | 0.00 | 88 | 1012.1 |
| 20260503023040 | 11 | 351 | 3.2 | 17.7 | 0.00 | 0.00 | 0.00 | 87 | 1012.1 |
| 20260503021536 | 11 | 261 | 3.2 | 14.5 | 0.00 | 0.00 | 0.00 | 87 | 1012.0 |
| 20260503020036 | 12 | 86 | 3.2 | 14.5 | 0.00 | 0.00 | 0.00 | 86 | 1012.1 |
| 20260503014535 | 12 | 245 | 3.2 | 17.7 | 0.00 | 0.00 | 0.00 | 85 | 1012.2 |
| 20260503013046 | 12 | 0 | 0.0 | 9.7 | 0.00 | 0.00 | 0.00 | 84 | 1012.2 |
| 20260503011538 | 12 | 193 | 3.2 | 11.3 | 0.00 | 0.00 | 0.00 | 83 | 1012.4 |
| 20260503010049 | 12 | 253 | 4.8 | 16.1 | 0.00 | 0.00 | 0.00 | 82 | 1012.4 |
| 20260503004536 | 12 | 208 | 3.2 | 20.9 | 0.00 | 0.00 | 0.00 | 81 | 1012.5 |
| 20260503003035 | 13 | 307 | 3.2 | 12.9 | 0.00 | 0.00 | 0.00 | 81 | 1012.5 |
| 20260503001543 | 12 | 266 | 1.6 | 24.1 | 0.00 | 0.00 | 0.00 | 81 | 1012.7 |
| 20260503000041 | 13 | 219 | 8.0 | 19.3 | 0.00 | 0.00 | 0.00 | 78 | 1012.7 |
| 20260502234539 | 13 | 0 | 0.0 | 14.5 | 0.00 | 0.00 | 0.00 | 78 | 1012.8 |
| 20260502233036 | 13 | 302 | 4.8 | 16.1 | 0.00 | 0.00 | 0.00 | 76 | 1012.9 |
| 20260502231543 | 13 | 359 | 0.0 | 16.1 | 0.00 | 0.00 | 0.00 | 78 | 1013.2 |
| 20260502230038 | 13 | 314 | 4.8 | 19.3 | 0.00 | 0.00 | 0.00 | 77 | 1013.3 |
| 20260502224540 | 13 | 139 | 6.4 | 20.9 | 0.00 | 0.00 | 0.00 | 80 | 1013.6 |
| 20260502223037 | 13 | 183 | 4.8 | 12.9 | 0.00 | 0.00 | 0.00 | 78 | 1013.8 |
| 20260502221536 | 13 | 0 | 4.8 | 11.3 | 0.00 | 0.00 | 0.00 | 77 | 1014.0 |
| 20260502220044 | 13 | 18 | 3.2 | 16.1 | 0.00 | 0.00 | 0.00 | 78 | 1014.2 |
| 20260502214551 | 14 | 1 | 3.2 | 11.3 | 0.00 | 0.00 | 0.00 | 76 | 1014.2 |
| 20260502213039 | 14 | 76 | 4.8 | 14.5 | 0.00 | 0.00 | 0.00 | 75 | 1014.2 |